Location: Colle San Luigi
(43.5500°N, 13.4167°E)
Time: 21:40:34
(UTC+00:00)

Terra - Pass Details

Date: 09 April 2020
Orbit: 701 x 703 km, 98.2° (Epoch: 26 May)

Event Time Altitude Azimuth Distance (km) Brightness Sun altitude
Exits shadow 22:08:27 17° 304° (WNW) 1,754 4.3 -36.7°
Drops below altitude 10° 22:10:00 10° 319° (NW) 2,179 5.0 -36.8°
Sets 22:12:42 0° 334° (NNW) 3,103 6.1 -36.9°
